FLOCK 4V-12 (46283 NORAD) Tracking and Keplerian Element Data

This shows tracking and keplerian element data for the satellite.

Feedback or suggestion? Click here.




ElementValue
Catalog46283
NameFLOCK 4V-12
Epoch Orbit1289
Epoch Day332.70000549
Epoch Year2020
RAAN44.1833
Inclination97.5117
Eccentricity0.0004981
Argument of Perigee64.8179
Mean Anonmoly295.3566
Mean Motion15.09996323
Decay Rate1.556E-05
L11 46283U 20061M 20332.70000549 .00001556 00000-0 99627-4 0 9991
L22 46283 97.5117 44.1833 0004981 64.8179 295.3566 15.09996323 12898

Live tracking and technical data element details for FLOCK 4V-12 (NORAD 46283). FLOCK 4V-12 can be tracked NOW for your location showing map with azimuth and elevation plus other details from your city location.

Track the satellite on the map from your city or location and see movement details for azimuth, elevation, latitude, longitude, range, height, and movement on the map or in text.







IsCatalogInMostPopularTable: catalog: 46283, numindb: 13
Update: records affected: 1



GetName: 46283 FLOCK 4V-12

Hit Count: updated at: Sun, 29 Nov 2020 09:59:57 GMT